TimeEDT,TemperatureF,Dew PointF,Humidity,Sea Level PressureIn,VisibilityMPH,Wind Direction,Wind SpeedMPH,Gust SpeedMPH,PrecipitationIn,Events,Conditions,WindDirDegrees,DateUTC
12:15 AM,50.9,41.0,69,30.45,10.0,ENE,11.5,-,N/A,,Clear,60,2014-04-18 04:15:00
12:35 AM,50.2,40.1,68,30.45,10.0,ENE,10.4,-,N/A,,Clear,60,2014-04-18 04:35:00
12:55 AM,48.9,40.5,73,30.45,10.0,NE,6.9,-,N/A,,Clear,40,2014-04-18 04:55:00
1:15 AM,48.6,38.8,69,30.44,10.0,NE,10.4,-,N/A,,Clear,50,2014-04-18 05:15:00
1:35 AM,47.5,38.8,72,30.44,10.0,NE,9.2,-,N/A,,Clear,40,2014-04-18 05:35:00
1:55 AM,46.8,38.5,73,30.43,10.0,NE,6.9,-,N/A,,Clear,40,2014-04-18 05:55:00
2:15 AM,46.2,38.3,74,30.43,10.0,NE,8.1,-,N/A,,Clear,40,2014-04-18 06:15:00
2:35 AM,45.5,38.1,75,30.42,10.0,NNE,6.9,-,N/A,,Scattered Clouds,30,2014-04-18 06:35:00
2:55 AM,45.0,37.8,76,30.43,10.0,NE,6.9,-,N/A,,Clear,40,2014-04-18 06:55:00
3:15 AM,44.6,37.6,76,30.43,10.0,NNE,6.9,-,N/A,,Clear,30,2014-04-18 07:15:00
3:35 AM,43.9,37.4,78,30.42,10.0,NNE,5.8,-,N/A,,Clear,30,2014-04-18 07:35:00
3:55 AM,43.7,37.4,78,30.42,10.0,NNE,3.5,-,N/A,,Clear,30,2014-04-18 07:55:00
4:15 AM,43.7,37.4,78,30.42,10.0,NNE,3.5,-,N/A,,Mostly Cloudy,20,2014-04-18 08:15:00
4:35 AM,43.7,37.2,78,30.42,10.0,NNE,6.9,-,N/A,,Overcast,20,2014-04-18 08:35:00
4:55 AM,42.8,36.7,79,30.41,10.0,NNE,4.6,-,N/A,,Mostly Cloudy,20,2014-04-18 08:55:00
5:15 AM,42.3,36.5,80,30.40,10.0,NNE,6.9,-,N/A,,Mostly Cloudy,30,2014-04-18 09:15:00
5:35 AM,41.9,36.7,82,30.41,10.0,North,4.6,-,N/A,,Scattered Clouds,10,2014-04-18 09:35:00
5:55 AM,41.7,36.9,83,30.41,10.0,North,5.8,-,N/A,,Clear,360,2014-04-18 09:55:00
6:15 AM,41.4,36.9,84,30.41,10.0,North,4.6,-,N/A,,Clear,10,2014-04-18 10:15:00
6:35 AM,41.4,36.9,84,30.42,10.0,North,3.5,-,N/A,,Clear,10,2014-04-18 10:35:00
6:55 AM,41.0,36.7,85,30.42,10.0,North,4.6,-,N/A,,Clear,10,2014-04-18 10:55:00
7:15 AM,41.0,36.7,85,30.42,10.0,North,4.6,-,N/A,,Clear,360,2014-04-18 11:15:00
7:35 AM,41.5,36.9,83,30.43,10.0,North,8.1,-,N/A,,Scattered Clouds,10,2014-04-18 11:35:00
7:55 AM,42.6,37.2,81,30.43,10.0,North,8.1,-,N/A,,Mostly Cloudy,10,2014-04-18 11:55:00
8:15 AM,43.0,37.2,80,30.43,10.0,NNE,8.1,-,N/A,,Overcast,20,2014-04-18 12:15:00
8:35 AM,44.2,37.2,76,30.43,10.0,North,6.9,-,N/A,,Overcast,360,2014-04-18 12:35:00
8:55 AM,44.8,36.9,74,30.43,10.0,North,8.1,16.1,N/A,,Mostly Cloudy,10,2014-04-18 12:55:00
9:15 AM,46.6,36.9,69,30.43,10.0,NNE,9.2,-,N/A,,Scattered Clouds,30,2014-04-18 13:15:00
9:35 AM,47.7,36.7,66,30.41,10.0,NNE,8.1,-,N/A,,Clear,20,2014-04-18 13:35:00
9:55 AM,49.1,37.0,63,30.41,10.0,North,6.9,-,N/A,,Clear,360,2014-04-18 13:55:00
10:15 AM,49.6,36.9,61,30.41,10.0,NNE,6.9,-,N/A,,Clear,30,2014-04-18 14:15:00
10:35 AM,51.4,36.9,58,30.42,10.0,NNE,4.6,-,N/A,,Clear,20,2014-04-18 14:35:00
10:55 AM,51.1,36.5,57,30.41,10.0,North,4.6,-,N/A,,Clear,350,2014-04-18 14:55:00
11:15 AM,52.7,36.7,55,30.41,10.0,NNE,6.9,-,N/A,,Clear,30,2014-04-18 15:15:00
11:35 AM,54.1,37.4,53,30.41,10.0,North,8.1,-,N/A,,Clear,350,2014-04-18 15:35:00
12:15 PM,54.9,36.9,51,30.40,10.0,North,5.8,-,N/A,,Overcast,350,2014-04-18 16:15:00
12:35 PM,56.1,36.1,47,30.40,10.0,NNE,5.8,-,N/A,,Overcast,20,2014-04-18 16:35:00
12:55 PM,57.4,36.7,46,30.38,10.0,North,3.5,-,N/A,,Mostly Cloudy,10,2014-04-18 16:55:00
1:15 PM,59.2,36.7,43,30.37,10.0,NNE,6.9,-,N/A,,Mostly Cloudy,20,2014-04-18 17:15:00
1:35 PM,60.3,37.4,43,30.36,10.0,NE,5.8,-,N/A,,Mostly Cloudy,40,2014-04-18 17:35:00
1:55 PM,60.3,36.1,41,30.35,10.0,ENE,3.5,-,N/A,,Scattered Clouds,60,2014-04-18 17:55:00
2:15 PM,61.7,37.8,41,30.33,10.0,NNW,5.8,-,N/A,,Clear,340,2014-04-18 18:15:00
2:35 PM,63.9,37.8,38,30.32,10.0,North,4.6,-,N/A,,Clear,360,2014-04-18 18:35:00
2:55 PM,63.9,39.2,40,30.31,10.0,ENE,8.1,-,N/A,,Clear,60,2014-04-18 18:55:00
3:15 PM,65.7,41.2,41,30.30,10.0,ENE,4.6,-,N/A,,Clear,60,2014-04-18 19:15:00
3:35 PM,66.6,39.4,37,30.28,10.0,North,4.6,-,N/A,,Clear,10,2014-04-18 19:35:00
3:55 PM,64.8,40.8,42,30.27,10.0,North,8.1,-,N/A,,Scattered Clouds,360,2014-04-18 19:55:00
4:15 PM,64.6,41.4,43,30.27,10.0,North,6.9,-,N/A,,Mostly Cloudy,360,2014-04-18 20:15:00
4:35 PM,65.3,40.1,40,30.26,10.0,East,8.1,-,N/A,,Scattered Clouds,80,2014-04-18 20:35:00
4:55 PM,64.8,41.4,42,30.26,10.0,NE,6.9,-,N/A,,Scattered Clouds,40,2014-04-18 20:55:00
5:15 PM,64.4,41.5,43,30.26,10.0,ENE,6.9,-,N/A,,Mostly Cloudy,60,2014-04-18 21:15:00
5:35 PM,63.7,41.7,45,30.25,10.0,NNE,6.9,-,N/A,,Overcast,30,2014-04-18 21:35:00
5:55 PM,62.8,42.3,47,30.26,10.0,NNE,4.6,-,N/A,,Mostly Cloudy,20,2014-04-18 21:55:00
6:15 PM,62.6,42.4,48,30.26,10.0,NNE,5.8,-,N/A,,Scattered Clouds,30,2014-04-18 22:15:00
6:35 PM,61.9,43.0,50,30.25,10.0,NNE,5.8,-,N/A,,Mostly Cloudy,30,2014-04-18 22:35:00
6:55 PM,61.7,43.2,51,30.24,10.0,ENE,5.8,-,N/A,,Overcast,60,2014-04-18 22:55:00
7:15 PM,61.2,43.2,52,30.24,10.0,NE,4.6,-,N/A,,Overcast,40,2014-04-18 23:15:00
7:35 PM,61.2,42.3,50,30.24,10.0,NE,5.8,-,N/A,,Overcast,50,2014-04-18 23:35:00
7:55 PM,60.8,42.3,50,30.25,10.0,ENE,4.6,-,N/A,,Overcast,70,2014-04-18 23:55:00
8:15 PM,59.9,42.1,52,30.24,10.0,NNE,6.9,-,N/A,,Overcast,30,2014-04-19 00:15:00
8:35 PM,59.5,42.3,53,30.25,10.0,NNE,4.6,-,N/A,Rain,Light Rain,20,2014-04-19 00:35:00
8:55 PM,57.7,45.9,65,30.27,10.0,Calm,Calm,-,N/A,Rain,Light Rain,0,2014-04-19 00:55:00
9:15 PM,54.7,48.2,79,30.27,7.0,Calm,Calm,-,0.02,Rain,Light Rain,0,2014-04-19 01:15:00
9:35 PM,53.8,48.4,82,30.27,10.0,North,4.6,-,0.03,Rain,Rain,360,2014-04-19 01:35:00
9:55 PM,53.1,48.6,85,30.27,10.0,North,3.5,-,0.04,Rain,Light Rain,350,2014-04-19 01:55:00
10:15 PM,52.7,49.5,89,30.27,7.0,NNE,3.5,-,0.03,Rain,Rain,20,2014-04-19 02:15:00
10:35 PM,52.2,50.4,94,30.26,7.0,North,4.6,-,0.06,Rain,Light Rain,360,2014-04-19 02:35:00
10:55 PM,52.0,50.4,94,30.25,7.0,NNE,4.6,-,0.08,Rain,Light Rain,20,2014-04-19 02:55:00
11:15 PM,51.8,50.0,94,30.25,7.0,NNE,5.8,-,0.02,Rain,Light Rain,20,2014-04-19 03:15:00
11:35 PM,51.4,50.2,95,30.23,7.0,North,5.8,-,0.03,Rain,Rain,10,2014-04-19 03:35:00
11:55 PM,51.3,50.0,95,30.23,10.0,NNE,6.9,-,0.04,,Drizzle,20,2014-04-19 03:55:00